[[{"header":{"parameterUnit":"m.s-1","parameterCategory":1,"la1":30.2991,"la2":30.254,"lo1":-89.0895,"lo2":-89.0444,"dy":0.0017,"dx":0.0017,"nx":28,"ny":28,"refTime":"2023-08-03T21:00:00:Z","depth":0,"parameterNumber":2,"parameterNumberName":"U-component_of_WINDS"},"data":[0,0,0,0,0,0,0,0,0,0,0,0,0,0,0,0,0,0,0,0,0,0,0,0,0,0,0,0,0,0,0,0,0,0,0,0,0,0,0,0,0,0,0,0,0,0,0,0,0,0,0,0,0,0,0,0,0,0,-0.2662,-0.2661,0,-0.2566,-0.2565,-0.2564,-0.2499,-0.2499,-0.2498,-0.2498,-0.24,-0.2398,-0.2396,0,0,0,0,0,0,0,0,0,0,0,0,0,-0.2791,-0.2789,-0.2662,-0.266,-0.2659,-0.2566,-0.2565,-0.2563,-0.2499,-0.2499,-0.2498,-0.2498,-0.2401,-0.2398,-0.2396,0,0,0,0,0,0,0,0,0,0,0,0,0,-0.2719,-0.2788,-0.2662,-0.2616,-0.2611,-0.2566,-0.2565,-0.2563,-0.2499,-0.2499,-0.2498,-0.2498,-0.2402,-0.2399,-0.2395,-0.2388,0,0,-0.2385,-0.2384,0,0,0,0,0,0,0,0,-0.2723,-0.2714,-0.2624,-0.2619,-0.2613,-0.2544,-0.2574,-0.2504,-0.25,-0.2542,-0.2498,-0.2497,-0.2449,-0.2441,-0.2425,-0.2384,-0.238,-0.2385,-0.2383,-0.2382,-0.2381,0,0,0,0,0,0,0,-0.2728,-0.2718,-0.2624,-0.2623,-0.2616,-0.2601,-0.259,-0.2561,-0.25,-0.2538,-0.2533,-0.2523,-0.2445,-0.2428,-0.2422,-0.2378,-0.2385,-0.2382,-0.238,-0.2379,-0.2328,-0.2329,0,0,0,0,0,0,-0.274,-0.2723,-0.2627,-0.2621,-0.2668,-0.2599,-0.2587,-0.2567,-0.25,-0.2489,-0.2523,-0.252,-0.2434,-0.2426,-0.2418,-0.2407,-0.2382,-0.2379,-0.2377,-0.2328,-0.2328,-0.2329,0,0,0,0,0,0,-0.2743,-0.2732,-0.2631,-0.267,-0.2656,-0.2598,-0.2576,-0.2565,-0.2548,-0.2489,-0.2478,-0.2517,-0.2433,-0.2423,-0.2397,-0.2403,-0.2377,-0.2374,-0.2327,-0.2328,-0.2329,-0.2384,0,0,0,0,0,0,-0.2747,-0.2734,-0.273,-0.2671,-0.2654,-0.261,-0.2576,-0.2564,-0.2542,-0.2537,-0.248,-0.247,-0.2432,-0.2402,-0.2394,-0.2398,-0.2372,-0.2326,-0.2327,-0.2329,-0.2381,-0.2386,-0.2391,0,0,0,0,0,-0.2752,-0.2749,-0.273,-0.2719,-0.2649,-0.2611,-0.2601,-0.2558,-0.2543,-0.2539,-0.2502,-0.2472,-0.2403,-0.24,-0.239,-0.2393,-0.2326,-0.2327,-0.2328,-0.2379,-0.2385,-0.2391,0,0,0,0,0,0,-0.2811,-0.2741,-0.2719,-0.2696,-0.266,-0.26,-0.2594,-0.2566,-0.2533,-0.2529,-0.2477,-0.2464,-0.2444,-0.2415,-0.2413,-0.2384,-0.2361,-0.236,-0.2403,-0.2408,-0.2413,-0.2421,-0.2369,0,0,0,0,0,-0.2821,-0.2796,-0.2736,-0.2722,-0.2705,-0.2653,-0.2635,-0.2604,-0.2565,-0.2549,-0.2509,-0.2472,-0.2442,-0.2424,-0.2393,-0.2377,-0.2364,-0.2374,-0.2379,-0.2383,-0.2384,-0.2374,-0.2379,-0.2334,-0.2334,-0.2334,0,0,-0.2842,-0.2801,-0.2788,-0.2733,-0.2701,-0.2677,-0.264,-0.2616,-0.2598,-0.2545,-0.2518,-0.2488,-0.2443,-0.2422,-0.2411,-0.2398,-0.2393,-0.2385,-0.2389,-0.2387,-0.2376,-0.2381,-0.2385,-0.2335,-0.2335,-0.2334,0,0,-0.2869,-0.2834,-0.282,-0.2789,-0.2741,-0.2706,-0.2703,-0.2647,-0.2626,-0.2598,-0.2558,-0.2536,-0.2485,-0.2455,-0.2433,-0.245,-0.2421,-0.2441,-0.2467,-0.2459,-0.2462,-0.2465,-0.2472,-0.2475,-0.2442,-0.2442,-0.2442,0,-0.2901,-0.2862,-0.2816,-0.2794,-0.2771,-0.2723,-0.2708,-0.2681,-0.2626,-0.2612,-0.2598,-0.2534,-0.25,-0.2473,-0.2477,-0.246,-0.2456,-0.2448,-0.2466,-0.2468,-0.247,-0.2476,-0.2479,-0.2445,-0.2444,-0.2444,-0.2444,0,-0.2905,-0.2879,-0.2873,-0.2822,-0.2798,-0.278,-0.2732,-0.2714,-0.2686,-0.2653,-0.2626,-0.2584,-0.2544,-0.2535,-0.2507,-0.2504,-0.2497,-0.2475,-0.2452,-0.2478,-0.2483,-0.2485,-0.2449,-0.2448,-0.2447,-0.2446,0,0,-0.2966,-0.2889,-0.2888,-0.2864,-0.2809,-0.2788,-0.2768,-0.273,-0.2716,-0.268,-0.2663,-0.2622,-0.2601,-0.2577,-0.2545,-0.2538,-0.2555,-0.2516,-0.2515,-0.2526,-0.255,-0.2568,-0.2571,-0.2536,-0.2536,-0.2536,-0.2554,0,-0.2985,-0.2946,-0.2904,-0.2881,-0.2857,-0.2811,-0.2794,-0.2758,-0.2728,-0.2703,-0.2669,-0.2641,-0.2616,-0.2601,-0.2591,-0.2555,-0.2559,-0.2553,-0.252,-0.2519,-0.2534,-0.2573,-0.2592,-0.2611,-0.2556,-0.2556,-0.2556,0,-0.3001,-0.2968,-0.2942,-0.289,-0.2878,-0.2864,-0.2826,-0.2803,-0.2762,-0.274,-0.2713,-0.268,-0.2657,-0.2636,-0.2606,-0.2602,-0.2586,-0.2567,-0.2566,-0.2562,-0.254,-0.2571,-0.2616,-0.2619,-0.2558,-0.2558,-0.2558,0,-0.305,-0.2998,-0.2976,-0.2957,-0.2895,-0.2887,-0.286,-0.2819,-0.2799,-0.2766,-0.2753,-0.2717,-0.2698,-0.2672,-0.263,-0.2619,-0.2605,-0.258,-0.2587,-0.2588,-0.2586,-0.2587,-0.263,-0.2575,-0.2575,-0.2574,-0.2574,0,-0.3075,-0.3062,-0.2997,-0.2984,-0.2968,-0.292,-0.2905,-0.2875,-0.2839,-0.282,-0.2778,-0.2761,-0.2706,-0.2683,-0.265,-0.263,-0.2622,-0.2604,-0.2596,-0.2608,-0.2611,-0.2598,-0.2596,-0.2575,-0.2575,-0.2575,-0.2575,0,-0.3127,-0.3083,-0.3056,-0.3,-0.2986,-0.2976,-0.2929,-0.2915,-0.2881,-0.2858,-0.2849,-0.2798,-0.2768,-0.2724,-0.2681,-0.2659,-0.2645,-0.263,-0.2659,-0.2654,-0.2664,-0.2664,-0.27,-0.2703,-0.2646,-0.2647,-0.2647,0,-0.3147,-0.3135,-0.3078,-0.3062,-0.3037,-0.3012,-0.2992,-0.2944,-0.2925,-0.2878,-0.287,-0.2837,-0.2809,-0.2764,-0.2723,-0.269,-0.2675,-0.269,-0.267,-0.2684,-0.2677,-0.2678,-0.2678,-0.2695,-0.2696,-0.2697,-0.2697,0,-0.3187,-0.3166,-0.3138,-0.3103,-0.3079,-0.3049,-0.3017,-0.3007,-0.2952,-0.2933,-0.2902,-0.288,-0.2837,-0.2805,-0.2767,-0.2741,-0.2711,-0.2704,-0.2704,-0.2717,-0.2735,-0.2727,-0.2673,-0.2704,-0.2703,-0.2702,-0.2702,-0.2702,-0.3224,-0.3212,-0.317,-0.3141,-0.3112,-0.3083,-0.3067,-0.3033,-0.3006,-0.2967,-0.2941,-0.2912,-0.2873,-0.2818,-0.2794,-0.2771,-0.2758,-0.2758,-0.2758,-0.2759,-0.2764,-0.2738,-0.2764,-0.2763,-0.2763,-0.2763,-0.2763,0,-0.3264,-0.3234,-0.3208,-0.3164,-0.3141,-0.3114,-0.3078,-0.3061,-0.3036,-0.3002,-0.2974,-0.294,-0.291,-0.2866,-0.2833,-0.2823,-0.2809,-0.2816,-0.2817,-0.2812,-0.2777,-0.2781,-0.2829,-0.2829,-0.2829,-0.2829,-0.2829,-0.2829,-0.3281,-0.326,-0.3235,-0.3199,-0.317,-0.3142,-0.3123,-0.3097,-0.3069,-0.3033,-0.3007,-0.2979,-0.2942,-0.2905,-0.2877,-0.2865,-0.2855,-0.2867,-0.2851,-0.282,-0.2814,-0.2808,-0.2811,-0.2865,-0.2865,-0.2887,-0.2888,-0.2888]},{"header":{"parameterUnit":"m.s-1","parameterCategory":1,"la1":30.2991,"la2":30.254,"lo1":-89.0895,"lo2":-89.0444,"dy":0.0017,"dx":0.0017,"nx":28,"ny":28,"refTime":"2023-08-03T21:00:00:Z","depth":0,"parameterNumber":3,"parameterNumberName":"V-component_of_WINDS"},"data":[0,0,0,0,0,0,0,0,0,0,0,0,0,0,0,0,0,0,0,0,0,0,0,0,0,0,0,0,0,0,0,0,0,0,0,0,0,0,0,0,0,0,0,0,0,0,0,0,0,0,0,0,0,0,0,0,0,0,4.4653,4.4652,0,4.4621,4.462,4.462,4.4579,4.4579,4.4578,4.4577,4.4542,4.4542,4.4542,0,0,0,0,0,0,0,0,0,0,0,0,0,4.4677,4.4677,4.4653,4.4652,4.4652,4.4621,4.462,4.462,4.4579,4.4579,4.4578,4.4577,4.4542,4.4542,4.4542,0,0,0,0,0,0,0,0,0,0,0,0,0,4.4658,4.4677,4.4653,4.4628,4.4625,4.4621,4.462,4.462,4.458,4.4579,4.4578,4.4577,4.4543,4.4542,4.4542,4.4558,0,0,4.454,4.454,0,0,0,0,0,0,0,0,4.4659,4.4657,4.4632,4.463,4.4627,4.4603,4.4616,4.4599,4.458,4.4597,4.4577,4.4576,4.4563,4.4561,4.4557,4.4556,4.4555,4.454,4.454,4.454,4.4539,0,0,0,0,0,0,0,4.4661,4.4658,4.464,4.4632,4.4628,4.4618,4.4614,4.4613,4.4586,4.4595,4.4592,4.4589,4.4562,4.4558,4.4556,4.4554,4.454,4.454,4.4539,4.4539,4.4565,4.4566,0,0,0,0,0,0,4.4666,4.466,4.4641,4.4639,4.4641,4.4618,4.4614,4.4612,4.4586,4.4581,4.459,4.4587,4.4559,4.4556,4.4554,4.4571,4.454,4.4539,4.4539,4.4564,4.4566,4.4567,0,0,0,0,0,0,4.4667,4.4665,4.4642,4.4649,4.4645,4.4619,4.4616,4.4611,4.4607,4.4582,4.4577,4.4591,4.4558,4.4555,4.4558,4.457,4.4539,4.4538,4.4563,4.4565,4.4566,4.4606,0,0,0,0,0,0,4.4668,4.4665,4.4671,4.4649,4.4645,4.4646,4.4617,4.4612,4.4607,4.4603,4.4581,4.4577,4.4557,4.4559,4.4557,4.4568,4.4538,4.4562,4.4564,4.4566,4.4604,4.4609,4.4613,0,0,0,0,0,4.4669,4.4683,4.4672,4.467,4.4652,4.4647,4.4644,4.4622,4.4608,4.4614,4.4598,4.4577,4.4569,4.4559,4.4557,4.4569,4.4561,4.4563,4.4566,4.4601,4.4608,4.4613,0,0,0,0,0,0,4.4706,4.468,4.4667,4.4675,4.4664,4.464,4.4646,4.463,4.4622,4.4618,4.4591,4.4586,4.4592,4.4581,4.457,4.4583,4.4562,4.4564,4.459,4.4596,4.4601,4.4603,4.4538,0,0,0,0,0,4.4716,4.4715,4.4691,4.4701,4.4696,4.4673,4.4669,4.4654,4.464,4.4635,4.4619,4.4607,4.4601,4.4598,4.4592,4.4602,4.4597,4.4609,4.4614,4.4618,4.462,4.4625,4.463,4.4574,4.4574,4.4574,0,0,4.4735,4.472,4.4721,4.4708,4.4697,4.4696,4.4669,4.4668,4.4667,4.4635,4.4636,4.4624,4.4609,4.4615,4.4617,4.4606,4.4634,4.4621,4.4625,4.4624,4.4628,4.4633,4.4638,4.4576,4.4575,4.4575,0,0,4.4769,4.4758,4.4765,4.4755,4.474,4.4725,4.4726,4.4706,4.4697,4.4698,4.4674,4.4672,4.4664,4.4653,4.4647,4.4679,4.466,4.4678,4.4703,4.4708,4.4712,4.4716,4.4727,4.4731,4.468,4.468,4.468,0,4.4794,4.4792,4.477,4.4772,4.4766,4.4739,4.4745,4.4737,4.472,4.4717,4.4705,4.4694,4.4682,4.4685,4.4694,4.469,4.469,4.468,4.4714,4.4717,4.472,4.473,4.4734,4.4682,4.4682,4.4682,4.4682,0,4.4824,4.4823,4.483,4.4815,4.4811,4.4815,4.4793,4.4792,4.4777,4.4763,4.4765,4.4749,4.4739,4.4739,4.4724,4.4741,4.4735,4.4719,4.4697,4.4728,4.4737,4.4741,4.4686,4.4685,4.4684,4.4684,0,0,4.4879,4.4853,4.4856,4.4849,4.4832,4.483,4.4833,4.4824,4.4823,4.4814,4.4815,4.4809,4.4795,4.4788,4.4771,4.4776,4.4802,4.4759,4.4758,4.4767,4.4819,4.4831,4.4836,4.479,4.4791,4.4791,4.482,0,4.4908,4.4912,4.4893,4.4902,4.49,4.4875,4.4878,4.4867,4.4854,4.4851,4.4837,4.4833,4.4814,4.481,4.4814,4.4798,4.4812,4.4796,4.479,4.479,4.4794,4.484,4.4852,4.488,4.4824,4.4824,4.4825,0,4.4943,4.4936,4.4945,4.4927,4.4926,4.4929,4.4919,4.4917,4.4905,4.4895,4.4888,4.487,4.4872,4.4852,4.4854,4.4843,4.484,4.4832,4.4833,4.483,4.4808,4.4838,4.4888,4.4892,4.483,4.483,4.4829,0,4.4981,4.4974,4.4978,4.4974,4.4953,4.4956,4.4947,4.4934,4.493,4.4923,4.492,4.4912,4.4907,4.4902,4.4882,4.487,4.4886,4.4864,4.4877,4.4877,4.488,4.488,4.493,4.488,4.488,4.488,4.488,0,4.5016,4.5022,4.4995,4.4998,4.5004,4.4983,4.4989,4.4978,4.4967,4.4967,4.4945,4.4945,4.4919,4.4917,4.4901,4.4905,4.4903,4.4895,4.489,4.4896,4.4897,4.4892,4.4889,4.4881,4.4881,4.4881,4.4881,0,4.5058,4.5041,4.5044,4.5025,4.5021,4.5026,4.501,4.5011,4.4998,4.4998,4.4997,4.4976,4.4972,4.4952,4.4943,4.4933,4.4941,4.4933,4.4945,4.4942,4.4956,4.4954,4.5003,4.5008,4.4957,4.4958,4.4958,0,4.5081,4.5085,4.5067,4.5066,4.5059,4.5057,4.5053,4.5033,4.503,4.5017,4.502,4.5014,4.5008,4.5003,4.4986,4.498,4.4971,4.4988,4.4969,4.4975,4.497,4.4969,4.4969,4.4992,4.4992,4.4993,4.4993,0,4.5122,4.5114,4.511,4.5103,4.51,4.5093,4.5086,4.5086,4.5063,4.5061,4.5057,4.5053,4.5044,4.5039,4.5029,4.502,4.5003,4.5,4.5002,4.5007,4.5014,4.501,4.4955,4.4998,4.4998,4.4998,4.4997,4.4997,4.5154,4.5157,4.5145,4.5142,4.5134,4.5128,4.5128,4.5116,4.5113,4.5104,4.5093,4.509,4.5078,4.5064,4.5057,4.5054,4.5044,4.5048,4.5049,4.505,4.5052,4.5016,4.5053,4.5052,4.5052,4.5052,4.5052,0,4.5194,4.5185,4.5182,4.5173,4.517,4.5156,4.5147,4.5146,4.5144,4.5135,4.513,4.5126,4.5121,4.5105,4.5098,4.5099,4.5091,4.5098,4.5097,4.5095,4.5062,4.506,4.5105,4.5105,4.5105,4.5105,4.5104,4.5104,4.5214,4.5217,4.5208,4.5208,4.5199,4.5197,4.5193,4.5188,4.518,4.5176,4.5173,4.5163,4.5151,4.5143,4.5138,4.5133,4.5131,4.5141,4.5133,4.5102,4.5097,4.5092,4.509,4.5141,4.5141,4.5166,4.5167,4.5167]}]]